Location: Ravensburg
(47.7866°N, 9.6124°E)
Time: 09:56:18
(UTC+02:00)

AO-73 - Pass Details

Date: 18 March 2026
Orbit: 514 x 567 km, 97.8° (Epoch: 18 April)

Event Time Altitude Azimuth Distance (km) Brightness Sun altitude
Rises 04:43:34 0° 7° (N) 2,666 ? -18.2°
Reaches altitude 10° 04:45:46 10° 0° (N) 1,766 ? -17.9°
Maximum altitude 04:49:21 42° 290° (WNW) 754 ? -17.3°
Enters shadow 04:49:53 39° 266° (W) 790 ? -17.2°
